Dewpoint
53 53 53 52 53 53 53 53 54 54 55 55 55 55 56 56 57 57 57 58 58 58 58 59 59 60 60 61 61 61 59 49 45 43 37 38 52 64 66 66 66 67 64 38 29 23 22 24 24 24 27 26 29 27 30 35 40 35 26 23 17 16 16 19 21 21 24 20 19 22 20 20 20 22 24 23 25 29 29 30 31 33 35 34 35 41 42 44
52 52 52 53 53 53 53 53 53 53 54 55 55 55 55 56 57 57 57 57 58 58 58 59 59 60 60 60 61 60 55 49 43 42 40 55 64 65 67 68 67 65 54 35 31 25 24 24 25 23 23 20 32 28 32 29 34 30 26 24 14 20 22 21 21 22 20 19 20 22 22 20 19 22 23 21 22 25 24 26 31 32 34 38 39 41 43 45
52 53 52 52 52 52 53 53 53 53 54 54 54 55 55 55 56 57 57 57 58 58 58 59 59 60 60 61 60 59 52 42 36 33 37 65 65 67 67 67 67 61 38 36 36 29 27 26 26 21 24 18 22 27 30 27 29 32 26 18 21 24 24 22 23 23 22 22 20 20 21 20 21 22 23 20 22 24 23 25 27 30 32 36 38 41 42 44
52 52 53 53 53 53 52 53 53 53 54 54 54 54 55 55 56 56 57 57 57 58 58 59 59 60 60 60 60 56 43 33 31 34 41 61 64 66 67 66 65 53 43 42 37 34 28 25 26 22 25 20 22 30 25 26 20 25 24 20 22 24 22 22 24 23 23 21 21 20 22 21 22 22 21 20 22 22 23 26 24 25 31 36 37 40 42 43
52 52 52 52 53 52 52 52 52 53 54 54 54 54 55 55 56 56 56 57 58 58 59 59 59 60 60 60 59 51 33 17 20 36 42 62 65 66 66 65 64 52 41 39 31 28 23 24 25 27 23 23 26 25 22 24 27 25 18 20 22 23 20 22 24 24 23 23 20 20 20 21 23 22 21 21 18 19 21 22 26 26 30 36 38 40 41 42
52 52 53 52 52 53 52 52 52 53 54 54 54 54 55 55 55 56 56 57 57 58 58 59 59 60 60 60 52 44 22 14 25 38 60 62 63 65 65 64 60 42 36 30 30 29 23 23 22 23 22 22 21 22 22 23 27 20 22 23 22 22 20 22 25 25 22 21 20 19 21 23 21 21 22 21 19 19 25 27 28 28 33 37 39 40 41 42
51 51 52 52 51 52 52 52 52 52 53 53 54 54 54 55 55 55 56 57 57 58 58 59 59 60 59 57 49 26 21 21 40 46 58 62 62 60 61 55 51 34 30 29 29 27 29 23 22 24 22 22 21 22 23 25 26 25 21 23 24 25 21 25 24 25 22 21 21 21 23 22 21 20 22 20 21 28 30 32 31 34 37 39 39 40 41 41
52 52 52 52 52 51 52 52 52 52 52 53 53 53 54 55 55 55 56 56 57 57 58 59 59 60 59 41 36 31 29 28 33 49 59 61 53 46 52 43 37 38 31 30 32 29 28 24 20 26 21 20 21 21 24 24 24 24 23 25 24 24 24 27 24 22 23 22 24 24 22 22 22 21 22 22 24 29 31 33 35 36 38 38 39 40 40 41
53 53 52 53 52 51 51 52 52 53 53 53 53 53 54 54 54 55 56 56 57 57 58 58 59 59 58 39 29 20 17 31 50 53 53 46 43 40 40 34 37 32 32 34 32 30 28 26 27 23 19 22 24 23 24 22 20 26 24 25 25 24 25 26 26 24 23 24 25 22 22 23 24 25 22 21 28 29 31 33 35 36 36 37 38 39 40 41
53 53 53 53 53 52 51 52 52 53 54 53 53 53 54 54 54 55 55 56 57 57 58 58 59 58 46 31 22 10 21 47 51 52 46 43 40 38 39 43 38 33 32 34 33 30 28 27 27 28 25 24 25 23 24 23 21 25 24 25 24 24 25 26 24 25 25 26 25 22 23 24 23 23 20 28 29 30 31 32 34 35 35 36 37 38 40 41
53 53 52 53 52 52 52 53 53 53 54 53 53 53 54 54 54 55 55 56 57 57 58 58 58 52 42 29 16 6 39 51 51 48 44 45 39 37 39 41 42 38 37 36 34 37 31 30 34 32 30 24 25 24 24 24 25 25 25 25 25 26 26 25 25 24 24 24 24 22 22 24 23 25 22 25 29 30 30 31 32 33 34 35 36 37 38 41
54 53 53 52 52 52 53 53 52 53 53 54 54 54 54 54 54 54 55 56 57 58 58 58 58 52 35 31 25 22 42 47 48 47 47 45 43 42 42 43 40 41 37 34 37 40 37 36 32 25 24 28 24 25 24 26 25 25 26 24 24 25 24 25 24 25 24 23 24 24 23 22 22 21 23 25 29 29 29 30 30 31 32 34 35 35 37 39
55 54 54 53 53 52 52 52 52 53 53 54 54 54 54 54 55 54 55 56 57 58 58 58 56 51 30 18 23 37 42 46 48 44 43 45 44 45 46 44 42 41 40 36 36 39 42 35 31 26 30 25 25 24 27 27 25 26 25 24 23 25 23 24 26 25 24 24 25 24 20 23 22 22 24 29 28 29 28 29 29 30 31 33 34 35 36 37
56 55 55 54 54 53 53 52 52 52 53 54 54 55 55 55 55 55 55 56 58 58 58 58 53 41 28 19 32 45 47 52 47 43 43 44 37 40 41 41 41 42 45 40 41 41 40 39 33 29 32 26 25 33 27 29 28 24 25 27 23 21 22 24 26 24 23 25 25 24 21 21 22 23 24 28 28 28 27 28 28 29 31 33 34 35 36 36
56 56 56 55 55 54 54 53 52 52 52 53 54 55 55 55 55 55 56 57 58 58 59 56 50 34 25 24 39 47 58 47 43 43 45 40 38 37 37 37 36 38 39 35 36 40 40 37 32 27 26 28 30 26 26 28 28 28 21 22 26 21 25 27 29 23 22 22 23 23 23 21 22 23 24 28 28 27 26 27 28 29 30 32 33 34 35 36
56 56 56 56 55 55 55 54 53 52 53 54 55 55 56 56 56 56 57 57 59 59 52 49 45 38 31 25 35 52 45 42 42 44 45 44 40 38 38 38 39 35 34 33 39 36 34 34 29 28 26 27 27 27 26 26 25 28 21 23 23 23 24 23 24 24 25 21 22 22 22 21 21 23 26 28 28 27 26 26 27 28 29 31 32 33 34 35
56 56 56 56 56 56 55 54 53 53 54 54 56 55 56 56 56 57 58 58 54 54 50 44 41 38 16 27 43 36 39 43 46 44 43 45 44 40 38 36 34 33 35 33 35 34 31 31 32 29 30 26 28 29 24 24 23 24 25 23 26 23 24 22 26 26 27 22 21 21 21 21 22 22 27 28 28 27 26 25 26 27 28 29 31 33 34 34
57 57 56 56 56 56 55 55 54 53 54 55 55 56 54 57 57 56 54 53 52 49 49 49 39 21 20 32 28 33 44 45 44 44 44 43 43 37 36 33 36 34 33 28 31 28 32 30 32 28 28 28 26 26 23 19 22 21 23 23 23 25 24 23 24 25 21 21 21 21 20 21 21 22 25 27 27 27 26 25 25 26 27 28 30 32 33 34
57 57 56 56 56 56 56 55 54 54 54 55 55 56 56 57 54 52 50 46 29 24 21 29 15 12 12 12 34 45 46 46 44 43 42 40 43 39 37 36 35 29 30 28 28 29 31 32 33 28 25 26 25 25 23 23 25 24 26 25 25 22 24 24 26 27 21 20 20 20 20 20 21 21 21 26 27 26 26 26 26 25 26 28 29 31 32 33
57 57 56 56 57 56 56 55 54 53 54 54 52 48 39 38 30 35 43 44 38 21 21 22 24 30 35 36 41 44 46 42 39 41 43 43 37 36 34 34 35 33 29 29 31 31 33 28 26 25 26 26 26 26 25 24 25 28 27 25 24 25 25 27 27 27 26 21 20 21 21 21 21 21 22 22 26 27 26 26 26 26 26 27 28 29 31 33
57 57 57 57 56 56 56 55 54 54 54 52 52 40 20 33 16 13 35 43 42 43 35 37 29 27 30 41 43 43 39 39 42 42 42 43 38 32 31 31 31 29 30 32 31 31 32 26 27 27 26 26 26 26 26 27 27 25 26 25 25 26 24 25 25 27 26 23 23 23 21 21 21 21 22 24 25 25 25 26 26 26 26 26 27 28 30 32
57 57 57 57 56 56 56 55 54 54 56 51 51 45 45 35 29 34 35 25 33 38 42 42 42 36 39 43 44 42 39 37 38 41 43 40 35 31 31 30 29 28 31 31 30 28 27 26 26 27 28 27 28 27 26 26 26 26 25 25 24 25 26 26 27 27 26 24 22 23 23 23 24 23 23 23 23 23 24 25 25 25 26 26 26 28 29 32
57 57 57 57 56 57 56 56 55 55 52 51 49 48 49 49 49 48 40 35 34 40 38 39 36 38 39 39 41 41 35 35 34 39 41 39 34 32 32 29 29 31 32 29 28 27 26 28 28 28 29 28 28 27 26 26 26 26 25 24 24 26 24 23 26 27 26 24 24 26 25 25 26 26 26 26 26 25 25 25 25 26 25 26 26 27 28 31
57 57 57 57 57 56 56 56 55 55 52 51 48 48 50 50 49 46 35 27 26 34 40 38 33 34 35 33 38 40 35 34 35 36 42 36 33 35 31 30 29 30 29 29 27 27 23 27 31 29 30 28 27 28 26 26 25 26 27 26 25 25 26 25 24 29 30 29 28 27 27 26 27 26 27 27 29 28 28 28 28 27 29 28 30 29 29 30
57 57 57 57 56 57 56 56 53 52 52 51 50 51 51 48 50 49 33 24 22 30 40 38 40 39 34 43 43 39 38 35 35 37 42 36 32 31 30 32 30 29 29 29 27 28 27 28 32 30 30 29 29 28 28 28 26 27 28 27 26 26 25 26 27 26 26 25 28 27 25 24 27 29 29 29 31 30 29 29 29 29 28 28 27 27 29 32
57 57 57 57 57 57 56 51 50 52 51 49 48 50 51 50 50 47 30 22 17 23 30 29 41 33 39 36 41 39 35 33 35 38 41 38 40 31 32 30 29 27 29 30 28 29 27 30 32 31 31 30 29 28 29 29 27 25 26 29 27 27 27 26 26 25 23 22 27 29 24 23 25 26 28 30 30 30 30 29 29 29 29 28 28 28 29 31
58 57 57 57 57 57 51 47 52 52 48 47 50 50 49 50 49 47 12 18 12 27 26 32 31 28 40 36 38 28 17 23 40 41 39 41 34 41 28 29 29 30 31 31 25 23 30 30 31 32 31 30 29 28 31 29 28 26 28 28 29 27 26 27 27 27 26 26 29 28 27 25 26 27 30 29 29 29 29 29 30 30 29 29 28 29 29 31
57 57 57 57 57 55 50 51 51 49 47 47 48 50 49 50 50 33 20 9 7 29 28 32 32 39 38 38 33 22 23 32 31 37 39 40 38 35 28 28 27 29 30 28 20 27 30 29 30 30 29 29 29 30 32 31 28 28 29 30 28 28 27 27 26 26 27 26 27 27 27 25 26 28 29 30 29 29 29 30 30 31 32 30 29 29 29 31
57 57 56 57 57 56 53 51 50 49 50 50 49 52 51 50 40 20 17 10 18 31 35 31 40 37 36 36 30 35 32 34 26 36 40 38 39 34 30 29 28 29 30 26 17 27 30 32 31 31 30 28 31 31 32 32 28 29 31 31 30 30 28 27 27 28 26 24 25 26 28 25 25 27 27 28 28 29 29 29 30 31 32 31 30 29 30 31
57 57 57 57 56 55 53 53 51 50 51 51 51 52 51 46 26 20 13 9 32 25 30 33 34 34 35 33 29 34 31 32 35 37 36 34 36 36 33 32 30 29 29 30 30 30 33 36 34 32 30 30 32 33 32 31 30 33 32 31 30 28 26 25 26 25 24 22 27 28 28 27 24 26 27 28 29 28 28 28 29 30 30 31 31 30 31 32
57 57 56 56 54 53 53 49 51 52 52 52 52 52 47 38 21 13 10 15 21 30 34 31 32 35 33 32 29 31 32 33 35 35 34 35 33 33 33 30 33 31 28 29 29 30 31 32 31 32 35 33 34 32 32 33 33 33 30 28 28 28 23 22 19 21 21 23 24 28 29 29 25 26 28 29 29 29 29 28 28 29 29 30 30 31 31 32
57 57 57 56 56 54 51 49 52 53 53 53 52 49 39 26 34 18 18 14 19 23 31 30 32 33 33 33 30 31 30 33 35 34 33 33 32 31 31 27 30 25 26 27 26 28 28 30 32 33 36 32 31 32 32 34 33 32 30 29 23 18 19 16 17 19 21 21 21 24 27 26 28 27 28 29 29 30 29 29 29 29 30 30 30 31 31 32
57 57 56 56 55 54 53 53 53 53 53 53 51 48 32 25 21 27 27 21 20 30 30 32 32 33 33 31 30 31 31 29 33 34 33 32 32 32 32 30 31 25 17 24 26 25 27 29 30 32 32 34 33 28 29 29 31 31 29 28 24 18 18 16 13 10 16 19 22 24 27 27 26 28 30 30 30 31 31 31 30 30 30 30 30 31 32 32
57 57 56 56 56 55 54 53 53 54 53 52 49 43 35 25 24 33 28 25 26 34 34 32 33 31 32 29 31 32 29 31 34 33 33 32 32 30 31 33 32 30 29 27 25 27 19 19 25 32 29 34 32 29 30 29 31 31 29 29 27 23 17 15 15 15 17 19 20 22 21 22 22 25 28 30 31 30 29 29 30 31 31 30 30 31 32 32
56 56 56 56 55 56 54 53 53 54 53 50 44 37 27 25 30 29 28 29 26 34 33 34 33 32 30 30 30 33 32 29 33 33 31 32 30 30 30 30 33 31 30 22 26 25 24 20 26 32 31 34 32 33 34 32 30 29 29 29 25 25 24 17 17 15 15 16 16 19 24 25 26 28 29 29 29 29 29 28 29 28 29 29 30 31 31 31
56 55 56 54 54 55 55 53 54 54 52 47 40 33 27 28 28 33 30 30 29 33 33 33 30 30 31 31 29 32 34 31 33 33 30 31 31 30 31 31 31 31 27 20 27 24 25 24 29 31 32 33 32 32 31 31 25 28 30 27 28 29 25 21 20 17 17 15 23 18 24 26 27 27 27 28 28 27 28 27 27 27 28 28 30 31 31 31
53 54 52 53 54 55 55 54 54 53 51 45 37 31 34 31 33 35 37 28 27 35 32 28 30 30 30 30 31 32 32 34 33 32 30 32 30 32 31 32 33 32 30 24 28 31 23 25 32 30 30 31 31 32 31 32 30 30 26 29 30 30 29 25 20 16 12 20 20 21 24 24 22 24 26 26 27 27 27 27 27 27 27 28 29 30 31 31
53 52 52 52 53 55 55 54 53 52 48 42 34 35 37 33 35 34 34 31 34 34 31 27 27 31 29 30 30 31 31 29 31 31 29 32 29 34 32 30 33 32 32 31 24 29 28 21 28 32 30 31 31 32 32 31 31 31 30 32 29 24 23 26 21 21 15 19 22 20 22 24 25 25 24 25 26 26 27 27 27 27 27 27 28 30 30 30
52 51 47 51 54 55 54 54 52 49 45 38 34 34 37 35 36 35 34 30 32 33 28 29 26 31 31 30 29 32 32 29 31 31 28 28 28 31 31 32 31 33 32 31 28 30 29 23 25 31 30 30 31 31 29 29 30 31 32 30 29 29 20 22 27 19 20 15 14 21 21 21 26 26 26 26 26 27 26 27 27 27 27 28 28 29 30 30
49 46 46 52 54 54 54 53 49 47 43 36 34 35 39 36 36 38 37 31 31 31 28 28 28 30 32 31 32 32 32 31 31 31 29 29 29 32 32 32 31 33 32 32 30 36 29 27 21 27 30 30 29 30 30 31 30 28 29 28 28 25 28 28 24 23 21 12 14 18 22 21 26 27 27 26 26 26 27 27 28 29 28 28 28 29 30 30
50 46 45 53 54 54 53 50 44 41 40 41 39 36 37 36 37 37 37 37 35 39 29 30 29 27 32 32 32 33 32 32 31 30 30 28 30 26 32 32 33 32 34 33 31 33 28 26 23 28 28 29 30 29 31 32 31 30 30 29 30 28 25 22 24 25 20 21 22 13 22 25 27 28 27 27 27 27 28 28 28 29 28 28 29 29 30 30
46 39 42 53 54 54 49 42 41 44 41 38 37 38 37 40 38 38 37 38 37 34 39 35 32 30 32 33 32 33 33 32 32 31 30 28 31 29 30 34 33 34 32 31 30 33 30 31 30 28 30 30 30 30 31 31 31 30 31 30 31 30 28 25 23 23 22 26 20 19 15 24 27 28 28 28 28 27 28 28 28 28 29 29 29 29 30 30
44 42 49 52 54 52 46 40 42 41 39 41 41 40 41 40 39 39 38 38 36 38 35 34 34 30 31 33 34 34 34 32 33 31 32 31 31 32 32 34 35 34 33 31 33 34 35 31 28 30 30 30 30 30 30 30 31 30 30 28 30 30 30 29 27 27 27 22 22 18 19 25 27 28 26 27 27 28 28 28 27 28 28 29 29 29 29 29
45 44 47 52 54 52 44 34 35 38 40 40 40 39 40 40 39 39 38 37 36 35 35 34 36 33 31 33 34 33 36 31 34 33 32 33 32 33 35 35 35 33 32 31 30 34 29 31 30 29 25 26 28 30 29 29 30 28 28 30 32 32 31 29 29 27 24 27 27 25 23 25 26 27 26 26 26 26 26 27 28 28 28 29 29 29 29 29
44 44 45 48 51 49 41 42 40 38 38 38 38 37 38 38 40 41 39 38 38 37 35 35 34 37 35 35 35 36 36 32 31 36 34 33 33 34 35 36 36 33 33 35 36 35 31 32 30 26 24 22 22 25 27 29 29 29 28 31 31 31 31 29 28 28 26 28 28 26 26 26 27 28 27 27 26 26 26 26 28 28 28 28 29 29 29 29
39 33 42 44 48 46 46 46 43 40 37 37 35 36 37 36 38 41 41 40 40 39 38 37 37 40 38 38 34 35 36 36 32 32 35 33 33 33 33 37 36 35 36 37 37 34 31 32 31 29 27 25 26 25 30 31 29 28 30 31 31 32 32 31 30 29 27 28 27 28 28 28 28 26 26 26 26 25 26 26 26 28 28 28 29 29 29 29
42 36 34 32 42 44 42 45 43 42 38 38 33 35 34 35 36 38 41 38 41 39 38 37 37 35 36 37 34 34 36 35 36 34 34 34 32 34 34 36 38 37 37 36 38 34 32 31 32 31 30 29 29 29 31 32 30 31 31 31 32 32 32 31 30 28 31 29 27 29 29 29 29 29 29 28 28 27 27 27 27 27 28 29 29 28 31 28
33 35 39 39 33 33 38 39 43 41 41 40 37 37 35 35 35 34 40 40 41 41 38 38 38 38 36 35 36 34 34 34 34 34 34 33 33 34 34 35 36 37 37 35 38 33 33 30 33 33 31 32 31 30 32 32 31 31 31 31 31 32 32 31 31 31 31 29 27 29 30 30 29 30 30 31 29 27 27 27 27 27 28 28 28 28 29 28
39 37 37 39 37 38 39 40 42 42 40 40 38 38 36 35 35 36 37 38 39 39 40 35 36 37 37 37 36 34 35 33 33 35 34 33 33 32 31 34 36 36 37 34 36 34 33 31 33 34 32 32 32 32 32 32 30 30 31 31 31 32 32 32 31 31 31 30 31 31 30 30 30 30 31 32 32 31 31 29 29 28 28 29 29 29 29 29
35 37 32 38 39 38 38 38 39 39 37 40 36 37 37 36 35 37 38 38 35 37 41 37 36 37 37 37 36 34 35 36 35 34 35 34 31 33 33 33 31 33 35 35 36 34 33 31 34 33 33 32 32 33 32 32 32 30 31 31 32 32 32 32 32 32 32 31 31 31 31 31 32 32 32 33 33 32 29 28 27 28 28 29 29 29 29 29
41 40 40 35 33 35 36 36 36 37 35 36 36 36 37 37 36 37 37 39 38 36 38 37 38 37 37 37 37 36 37 37 37 36 37 36 33 35 33 33 35 33 34 34 34 32 34 32 33 33 32 31 33 32 32 31 32 32 31 31 31 31 30 31 31 32 31 31 31 31 31 31 31 33 33 32 30 31 31 31 30 29 28 29 29 29 29 29
42 42 41 38 32 36 34 34 35 37 33 35 35 34 36 36 38 39 37 39 40 39 39 39 39 38 37 37 36 37 38 38 38 39 38 37 38 39 38 38 36 35 34 34 35 33 33 33 32 32 31 31 33 33 32 31 31 30 31 32 32 32 31 32 32 33 32 32 31 30 30 32 32 32 31 30 31 32 31 31 31 30 29 29 29 29 29 29